Flag for Vatican City State Weather past 2 weeks in Vatican City, Vatican City State

Now
70 °F

Scattered clouds.


Feels Like: 70 °F
Forecast: 64 / 92 °F
Wind: 2 mph from North

Location: Rome / Ciampino

Current Time: Jul 1, 2015 at 7:19:11 AM

Latest Report: Jul 1, 2015 at 6:50 AM


Visibility: N/A

Pressure: 30.12 "Hg

Humidity: 73%

Dew point: 61 °F

Location of Vatican CityLocation

Historic Weather in Vatican City — Graph

°F

Vatican City temperature yesterday

Maximum temperature yesterday: 88 °F (at 12:50 PM)
Minimum temperature yesterday: 68 °F (at 5:45 AM)
Average temperature yesterday: 78 °F

Past Weeks' High & Low Weather Summary

 TemperatureHumidityPressure
High88 °F (Jun 27, 2:15 PM)94% (Jun 16, 6:15 AM)30.12 "Hg (Jun 16, 6:15 AM)
Low57 °F (Jun 21, 6:15 AM)19% (Jun 27, 2:15 PM)29.80 "Hg (Jun 19, 4:45 PM)
Average73 °F61%29.97 "Hg
* Reported Jun 16 5:15 AM — Jul 1 5:50 AM, Vatican City, Weather by CustomWeather, © 2015

Note: Actual official high and low records may vary slightly from our data, if they occured in-between our weather recording intervals... More about our weather records

Advertising

Vatican City weather history for previous 24 hours

 ConditionsComfort  
Time TempWeatherWind HumidityBarometerVisibility
5:50 AM
Wed, Jul 1
68 °FClear.5 mph69%30.09 "Hg10 mi
5:20 AM68 °FPassing clouds.3 mph69%30.09 "HgN/A
4:50 AM68 °FClear.5 mph64%30.09 "Hg10 mi
4:20 AM68 °FClear.3 mph64%30.09 "Hg10 mi
3:50 AM68 °FClear.5 mph60%30.09 "Hg10 mi
3:20 AM68 °FClear.5 mph60%30.09 "Hg10 mi
2:50 AM68 °FClear.6 mph60%30.09 "Hg10 mi
2:20 AM68 °FClear.5 mph60%30.12 "Hg10 mi
1:50 AM70 °FClear.5 mph60%30.12 "Hg10 mi
1:20 AM70 °FClear.3 mph69%30.12 "Hg10 mi
12:50 AM70 °FClear.3 mph69%30.12 "Hg10 mi
12:20 AM72 °FClear.3 mph69%30.12 "Hg10 mi
11:50 PM
Tue, Jun 30
72 °FClear.3 mph73%30.12 "Hg10 mi
11:20 PM72 °FClear.5 mph78%30.12 "Hg10 mi
10:50 PM73 °FClear.2 mph78%30.12 "Hg10 mi
10:20 PM73 °FClear.3 mph78%30.09 "Hg10 mi
9:50 PM75 °FClear.3 mph74%30.09 "Hg10 mi
9:20 PM77 °FPassing clouds.3 mph69%30.09 "HgN/A
8:50 PM79 °FPassing clouds.5 mph65%30.07 "HgN/A
8:20 PM81 °FPassing clouds.5 mph51%30.07 "HgN/A
7:50 PM82 °FPassing clouds.3 mph45%30.07 "HgN/A
6:50 PM82 °FPassing clouds.5 mph45%30.07 "HgN/A
6:20 PM82 °FScattered clouds.5 mph42%30.07 "HgN/A
5:50 PM84 °FScattered clouds.7 mph40%30.07 "HgN/A
4:50 PM84 °FScattered clouds.10 mph43%30.07 "HgN/A
4:20 PM84 °FScattered clouds.10 mph45%30.07 "HgN/A
3:50 PM88 °FScattered clouds.7 mph43%30.07 "HgN/A
2:50 PM84 °FScattered clouds.7 mph51%30.09 "HgN/A
2:20 PM86 °FScattered clouds.5 mph49%30.09 "HgN/A
1:50 PM84 °FScattered clouds.7 mph55%30.09 "HgN/A
1:20 PM86 °FScattered clouds.9 mph52%30.09 "HgN/A
12:50 PM88 °FPassing clouds.5 mph38%30.09 "HgN/A
12:20 PM86 °FPassing clouds.6 mph46%30.09 "HgN/A
11:50 AM84 °FPassing clouds.5 mph48%30.09 "HgN/A
11:20 AM84 °FPassing clouds.5 mph48%30.09 "HgN/A
10:50 AM82 °FPassing clouds.3 mph51%30.09 "HgN/A
10:15 AM82 °FSunny.2 mph45%30.09 "Hg10 mi
9:45 AM81 °FSunny.No wind51%30.09 "Hg10 mi
9:15 AM81 °FSunny.No wind54%30.07 "Hg10 mi
8:45 AM77 °FSunny.1 mph65%30.07 "Hg10 mi
8:15 AM75 °FSunny.1 mph69%30.07 "Hg10 mi
7:45 AM73 °FSunny.2 mph89%30.07 "Hg10 mi
7:15 AM72 °FSunny.2 mph88%30.07 "Hg10 mi
Weather by CustomWeather, © 2015

See weather overviewHow to use our weather pages